Location: Castiglione Fibocchi
(43.5333°N, 11.7667°E)
Time: 10:16:24
(UTC+00:00)

SL-08 R/B - Pass Details

Date: 15 August 2020
Orbit: 673 x 740 km, 98.4° (Epoch: 18 September)

Event Time Altitude Azimuth Distance (km) Brightness Sun altitude
Exits shadow 02:05:27 26° 167° (SSE) 1,418 4.6 -20.9°
Maximum altitude 02:08:16 87° 253° (WSW) 747 3.3 -20.6°
Drops below altitude 10° 02:13:14 10° 346° (NNW) 2,250 6.3 -19.9°
Sets 02:15:31 0° 347° (NNW) 3,170 7.1 -19.6°
